| time (UTC) | temp F | wind direction | speed MPH | gust MPH | rain 1hr in | rain 24hr in | rain mn in | humidity % | barometer mb |
| 20260505172435 | 81 | 283 | 0.0 | 8.0 | 0.00 | 0.00 | 0.00 | 39 | 1008.3 |
| 20260505162434 | 80 | 247 | 1.0 | 6.0 | 0.00 | 0.00 | 0.00 | 43 | 1009.4 |
| 20260505152432 | 77 | 183 | 3.0 | 12.0 | 0.00 | 0.00 | 0.00 | 46 | 1009.7 |
| 20260505122427 | 62 | 168 | 0.0 | 0.0 | 0.00 | 0.00 | 0.00 | 74 | 1010.7 |
| 20260505115426 | 58 | 168 | 0.0 | 0.0 | 0.00 | 0.00 | 0.00 | 82 | 1010.4 |
| 20260505095422 | 49 | 167 | 0.0 | 0.0 | 0.00 | 0.00 | 0.00 | 89 | 1009.3 |
| 20260505092421 | 50 | 168 | 0.0 | 0.0 | 0.00 | 0.00 | 0.00 | 89 | 1009.4 |
| 20260505085420 | 50 | 167 | 0.0 | 0.0 | 0.00 | 0.00 | 0.00 | 89 | 1009.4 |
| 20260505082420 | 51 | 168 | 0.0 | 0.0 | 0.00 | 0.00 | 0.00 | 88 | 1009.3 |
| 20260505075418 | 53 | 168 | 0.0 | 0.0 | 0.00 | 0.00 | 0.00 | 87 | 1009.2 |
| 20260505072418 | 54 | 168 | 0.0 | 0.0 | 0.00 | 0.00 | 0.00 | 86 | 1009.1 |
| 20260505065417 | 55 | 168 | 0.0 | 0.0 | 0.00 | 0.00 | 0.00 | 85 | 1009.0 |
| 20260505062416 | 56 | 168 | 0.0 | 0.0 | 0.00 | 0.00 | 0.00 | 83 | 1009.1 |
| 20260505055446 | 57 | 168 | 0.0 | 0.0 | 0.00 | 0.00 | 0.00 | 79 | 1009.3 |
| 20260505052414 | 58 | 168 | 0.0 | 0.0 | 0.00 | 0.00 | 0.00 | 71 | 1009.4 |
| 20260505035442 | 65 | 168 | 0.0 | 0.0 | 0.00 | 0.00 | 0.00 | 53 | 1009.1 |
| 20260505032441 | 65 | 167 | 0.0 | 0.0 | 0.00 | 0.00 | 0.00 | 51 | 1009.0 |
| 20260505015439 | 69 | 258 | 0.0 | 0.0 | 0.00 | 0.00 | 0.00 | 43 | 1009.0 |
| 20260505012438 | 70 | 186 | 3.0 | 7.0 | 0.00 | 0.00 | 0.00 | 42 | 1008.8 |
| 20260505005437 | 70 | 207 | 0.0 | 5.0 | 0.00 | 0.00 | 0.00 | 41 | 1008.5 |
| 20260505002436 | 70 | 217 | 1.0 | 3.0 | 0.00 | 0.00 | 0.00 | 41 | 1008.2 |
| 20260504235435 | 71 | 242 | 2.0 | 3.0 | 0.00 | 0.00 | 0.00 | 42 | 1008.2 |
| 20260504232434 | 72 | 157 | 6.0 | 12.0 | 0.00 | 0.00 | 0.00 | 41 | 1007.9 |
| 20260504225434 | 73 | 234 | 1.0 | 15.0 | 0.00 | 0.00 | 0.00 | 38 | 1007.7 |
| 20260504222433 | 74 | 211 | 2.0 | 5.0 | 0.00 | 0.00 | 0.00 | 38 | 1007.6 |
| 20260504212431 | 77 | 213 | 1.0 | 7.0 | 0.00 | 0.00 | 0.00 | 33 | 1007.6 |
| 20260504205430 | 77 | 269 | 5.0 | 8.0 | 0.00 | 0.00 | 0.00 | 33 | 1007.6 |
| 20260504202429 | 76 | 279 | 0.0 | 8.0 | 0.00 | 0.00 | 0.00 | 35 | 1008.1 |
| 20260504195429 | 76 | 259 | 2.0 | 3.0 | 0.00 | 0.00 | 0.00 | 37 | 1008.4 |
| 20260504185427 | 74 | 239 | 6.0 | 6.0 | 0.00 | 0.00 | 0.00 | 38 | 1009.4 |
| 20260504182426 | 74 | 278 | 1.0 | 7.0 | 0.00 | 0.00 | 0.00 | 37 | 1009.9 |